TimeCDT,TemperatureF,Dew PointF,Humidity,Sea Level PressureIn,VisibilityMPH,Wind Direction,Wind SpeedMPH,Gust SpeedMPH,PrecipitationIn,Events,Conditions,WindDirDegrees,DateUTC
12:54 AM,61.0,48.0,62,29.93,10.0,SSW,3.5,-,N/A,,Clear,210,2013-09-22 05:54:00
1:54 AM,60.1,48.9,67,29.93,10.0,SW,3.5,-,N/A,,Clear,230,2013-09-22 06:54:00
2:54 AM,59.0,48.9,69,29.93,10.0,Calm,Calm,-,N/A,,Clear,0,2013-09-22 07:54:00
3:54 AM,59.0,48.9,69,29.93,10.0,Calm,Calm,-,N/A,,Clear,0,2013-09-22 08:54:00
4:54 AM,59.0,48.9,69,29.93,10.0,Calm,Calm,-,N/A,,Clear,0,2013-09-22 09:54:00
5:54 AM,57.9,50.0,75,29.94,10.0,Calm,Calm,-,N/A,,Clear,0,2013-09-22 10:54:00
6:54 AM,59.0,46.9,64,29.95,10.0,SSW,3.5,-,N/A,,Clear,200,2013-09-22 11:54:00
7:54 AM,59.0,48.0,67,29.97,10.0,Calm,Calm,-,N/A,,Clear,0,2013-09-22 12:54:00
8:54 AM,63.0,50.0,63,29.98,10.0,East,3.5,-,N/A,,Clear,80,2013-09-22 13:54:00
9:54 AM,68.0,48.9,50,29.98,10.0,South,6.9,-,N/A,,Clear,170,2013-09-22 14:54:00
10:54 AM,71.1,48.9,45,29.99,10.0,South,9.2,-,N/A,,Clear,180,2013-09-22 15:54:00
11:54 AM,73.9,50.0,43,29.97,10.0,Variable,6.9,-,N/A,,Clear,0,2013-09-22 16:54:00
12:54 PM,75.0,50.0,41,29.94,10.0,ESE,3.5,-,N/A,,Clear,120,2013-09-22 17:54:00
1:54 PM,77.0,50.0,39,29.92,10.0,ESE,6.9,-,N/A,,Clear,120,2013-09-22 18:54:00
2:54 PM,77.0,48.9,37,29.90,10.0,Variable,6.9,-,N/A,,Clear,0,2013-09-22 19:54:00
3:54 PM,77.0,48.0,36,29.88,10.0,SSE,10.4,-,N/A,,Clear,150,2013-09-22 20:54:00
4:54 PM,77.0,48.9,37,29.87,10.0,SE,10.4,-,N/A,,Clear,130,2013-09-22 21:54:00
5:54 PM,75.0,50.0,41,29.87,10.0,South,10.4,-,N/A,,Clear,190,2013-09-22 22:54:00
6:54 PM,73.9,45.0,35,29.86,10.0,SE,8.1,-,N/A,,Clear,140,2013-09-22 23:54:00
7:54 PM,70.0,46.9,44,29.86,10.0,ESE,4.6,-,N/A,,Clear,120,2013-09-23 00:54:00
8:54 PM,66.9,48.9,52,29.87,10.0,ESE,5.8,-,N/A,,Clear,120,2013-09-23 01:54:00
9:54 PM,66.9,48.9,52,29.87,10.0,SE,13.8,19.6,N/A,,Clear,140,2013-09-23 02:54:00
10:54 PM,64.9,48.9,56,29.88,10.0,SE,10.4,-,N/A,,Clear,130,2013-09-23 03:54:00
11:54 PM,64.0,48.9,58,29.88,10.0,ESE,5.8,-,N/A,,Clear,110,2013-09-23 04:54:00